WMT481 LROP-LRTR

Flight info

Callsign WMT481
Flight time 0h 43m
Altitude 36000
Route SOKRU DCT OXDOC DCT NEKUL
Aircraft A20N/M-SDE2E3FGHIRWXY/LB1

Departure

Time 2026-04-14 15:55
Airport Bucharest Henri Coandă International Airport (LROP)

Arrival

Time 2026-04-14 16:39
Airport Timișoara Traian Vuia International Airport (LRTR)
Time Latitude Longitude Altitude Speed Heading
2026-04-14 15:35 44.57137 26.08058 320 ft 0 kts 173°
2026-04-14 15:44 44.57149 26.08056 320 ft 2 kts 173°
2026-04-14 15:45 44.57164 26.08053 320 ft 2 kts 174°
2026-04-14 15:45 44.57179 26.08051 320 ft 1 kts 173°
2026-04-14 15:45 44.57188 26.08049 320 ft 2 kts 151°
2026-04-14 15:45 44.57199 26.08034 320 ft 2 kts 108°
2026-04-14 15:46 44.57200 26.08021 320 ft 1 kts 84°
2026-04-14 15:46 44.57199 26.08012 320 ft 0 kts 83°
2026-04-14 15:48 44.57201 26.08036 320 ft 5 kts 83°
2026-04-14 15:49 44.57208 26.08116 320 ft 9 kts 86°
2026-04-14 15:49 44.57213 26.08214 320 ft 10 kts 84°
2026-04-14 15:49 44.57221 26.08321 320 ft 11 kts 83°
2026-04-14 15:49 44.57233 26.08436 321 ft 12 kts 83°
2026-04-14 15:50 44.57288 26.08494 320 ft 12 kts 354°
2026-04-14 15:50 44.57346 26.08486 320 ft 12 kts 356°
2026-04-14 15:50 44.57397 26.08480 320 ft 12 kts 354°
2026-04-14 15:50 44.57488 26.08467 320 ft 13 kts 354°
2026-04-14 15:51 44.57516 26.08462 320 ft 0 kts 353°
2026-04-14 15:52 44.57520 26.08462 320 ft 1 kts 354°
2026-04-14 15:53 44.57521 26.08462 320 ft 0 kts 354°
2026-04-14 15:53 44.57537 26.08459 320 ft 4 kts 354°
2026-04-14 15:53 44.57579 26.08454 320 ft 7 kts 355°
2026-04-14 15:54 44.57671 26.08522 320 ft 9 kts 79°
2026-04-14 15:54 44.57672 26.08539 320 ft 0 kts 83°
2026-04-14 15:55 44.57673 26.08548 320 ft 4 kts 83°
2026-04-14 15:55 44.57700 26.08904 321 ft 80 kts 84°
2026-04-14 15:55 44.57787 26.10045 336 ft 151 kts 82°
2026-04-14 15:55 44.57913 26.11497 1142 ft 152 kts 84°
2026-04-14 15:56 44.58026 26.12932 2100 ft 152 kts 86°
2026-04-14 15:56 44.58129 26.14406 2797 ft 163 kts 86°
2026-04-14 15:56 44.58333 26.16043 3408 ft 182 kts 68°
2026-04-14 15:56 44.59284 26.17267 4024 ft 205 kts 22°
2026-04-14 15:57 44.60749 26.17220 4600 ft 228 kts 339°
2026-04-14 15:57 44.62004 26.15737 5112 ft 253 kts 302°
2026-04-14 15:57 44.62879 26.13493 5831 ft 271 kts 296°
2026-04-14 15:57 44.63739 26.11134 6573 ft 277 kts 297°
2026-04-14 15:58 44.64678 26.08746 7041 ft 278 kts 299°
2026-04-14 15:58 44.65659 26.06413 7211 ft 279 kts 300°
2026-04-14 15:58 44.66666 26.04117 7215 ft 278 kts 301°
2026-04-14 15:58 44.67697 26.01825 7215 ft 277 kts 302°
2026-04-14 15:59 44.68609 25.99420 7212 ft 277 kts 291°
2026-04-14 15:59 44.69268 25.96911 7212 ft 277 kts 288°
2026-04-14 15:59 44.69892 25.94344 7211 ft 277 kts 288°
2026-04-14 15:59 44.70519 25.91794 7211 ft 277 kts 289°
2026-04-14 16:00 44.71166 25.89221 7215 ft 277 kts 289°
2026-04-14 16:00 44.71813 25.86690 7227 ft 276 kts 290°
2026-04-14 16:00 44.72469 25.84151 7215 ft 276 kts 290°
2026-04-14 16:00 44.73132 25.81602 7218 ft 277 kts 290°
2026-04-14 16:01 44.73790 25.79080 7220 ft 276 kts 290°
2026-04-14 16:01 44.74455 25.76535 7224 ft 277 kts 290°
2026-04-14 16:01 44.75114 25.74009 7220 ft 276 kts 290°
2026-04-14 16:01 44.75778 25.71468 7293 ft 281 kts 290°
2026-04-14 16:02 44.76453 25.68886 8024 ft 289 kts 290°
2026-04-14 16:02 44.77137 25.66266 9256 ft 284 kts 290°
2026-04-14 16:02 44.77806 25.63702 10296 ft 285 kts 290°
2026-04-14 16:02 44.78487 25.61076 11087 ft 294 kts 290°
2026-04-14 16:03 44.79209 25.58295 11713 ft 309 kts 290°
2026-04-14 16:03 44.79942 25.55467 12577 ft 314 kts 291°
2026-04-14 16:03 44.80689 25.52588 13490 ft 317 kts 291°
2026-04-14 16:03 44.81447 25.49663 14363 ft 321 kts 291°
2026-04-14 16:04 44.82205 25.46746 15220 ft 324 kts 291°
2026-04-14 16:04 44.82971 25.43793 16066 ft 326 kts 291°
2026-04-14 16:04 44.83747 25.40794 16898 ft 329 kts 291°
2026-04-14 16:04 44.84530 25.37766 17692 ft 332 kts 290°
2026-04-14 16:05 44.85313 25.34727 18473 ft 335 kts 290°
2026-04-14 16:05 44.86115 25.31606 19255 ft 338 kts 290°
2026-04-14 16:05 44.86904 25.28532 19992 ft 341 kts 290°
2026-04-14 16:05 44.87713 25.25371 20719 ft 345 kts 289°
2026-04-14 16:06 44.88529 25.22179 21445 ft 348 kts 290°
2026-04-14 16:06 44.89347 25.18977 22159 ft 352 kts 290°
2026-04-14 16:06 44.90007 25.16395 22721 ft 355 kts 290°
2026-04-14 16:06 44.90833 25.13161 23409 ft 358 kts 290°
2026-04-14 16:07 44.91674 25.09864 24092 ft 362 kts 290°
2026-04-14 16:07 44.92525 25.06522 24734 ft 366 kts 290°
2026-04-14 16:07 44.93392 25.03109 25351 ft 370 kts 290°
2026-04-14 16:07 44.94254 24.99714 25925 ft 374 kts 290°
2026-04-14 16:08 44.95134 24.96241 26506 ft 378 kts 290°
2026-04-14 16:08 44.96017 24.92755 27055 ft 383 kts 290°
2026-04-14 16:08 44.96923 24.89167 27602 ft 387 kts 290°
2026-04-14 16:08 44.97822 24.85600 28120 ft 391 kts 290°
2026-04-14 16:09 44.98730 24.81993 28607 ft 394 kts 290°
2026-04-14 16:09 44.99656 24.78308 29079 ft 398 kts 290°
2026-04-14 16:09 45.00571 24.74664 29527 ft 402 kts 290°
2026-04-14 16:09 45.01517 24.70891 29957 ft 405 kts 290°
2026-04-14 16:10 45.02463 24.67112 30365 ft 409 kts 290°
2026-04-14 16:10 45.03413 24.63307 30754 ft 412 kts 290°
2026-04-14 16:10 45.04357 24.59526 31102 ft 414 kts 290°
2026-04-14 16:10 45.05317 24.55674 31456 ft 416 kts 290°
2026-04-14 16:11 45.06279 24.51805 31800 ft 418 kts 290°
2026-04-14 16:11 45.06795 24.49727 31986 ft 418 kts 290°
2026-04-14 16:11 45.07751 24.45871 32184 ft 420 kts 290°
2026-04-14 16:12 45.09674 24.38087 32193 ft 419 kts 290°
2026-04-14 16:12 45.11598 24.30273 32192 ft 419 kts 289°
2026-04-14 16:13 45.13513 24.22475 32185 ft 419 kts 289°
2026-04-14 16:13 45.15261 24.15337 31967 ft 412 kts 289°
2026-04-14 16:13 45.16182 24.11558 31730 ft 409 kts 289°
2026-04-14 16:14 45.17110 24.07751 31493 ft 409 kts 289°
2026-04-14 16:14 45.18042 24.03921 31248 ft 409 kts 289°
2026-04-14 16:14 45.18969 24.00109 31007 ft 410 kts 289°
2026-04-14 16:14 45.19889 23.96314 30766 ft 410 kts 289°
2026-04-14 16:15 45.20811 23.92504 30507 ft 409 kts 289°
2026-04-14 16:15 45.21732 23.88696 30241 ft 406 kts 289°
2026-04-14 16:15 45.22639 23.84938 29971 ft 404 kts 289°
2026-04-14 16:15 45.23545 23.81178 29704 ft 403 kts 289°
2026-04-14 16:16 45.24435 23.77474 29432 ft 401 kts 289°
2026-04-14 16:16 45.25330 23.73748 29162 ft 399 kts 289°
2026-04-14 16:16 45.26228 23.70000 28890 ft 397 kts 289°
2026-04-14 16:16 45.27016 23.66705 28647 ft 395 kts 290°
2026-04-14 16:17 45.27816 23.63357 28402 ft 393 kts 289°
2026-04-14 16:17 45.28684 23.59721 28130 ft 390 kts 289°
2026-04-14 16:17 45.29550 23.56085 27851 ft 388 kts 289°
2026-04-14 16:17 45.30415 23.52447 27569 ft 386 kts 289°
2026-04-14 16:18 45.31263 23.48875 27241 ft 384 kts 289°
2026-04-14 16:18 45.32115 23.45282 26837 ft 381 kts 289°
2026-04-14 16:18 45.32944 23.41778 26425 ft 378 kts 289°
2026-04-14 16:18 45.33774 23.38264 25997 ft 376 kts 289°
2026-04-14 16:19 45.34605 23.34739 25569 ft 373 kts 289°
2026-04-14 16:19 45.35422 23.31272 25139 ft 369 kts 289°
2026-04-14 16:19 45.36225 23.27855 24724 ft 366 kts 289°
2026-04-14 16:19 45.37027 23.24437 24278 ft 364 kts 289°
2026-04-14 16:20 45.37820 23.21055 23854 ft 360 kts 289°
2026-04-14 16:20 45.38604 23.17706 23428 ft 357 kts 289°
2026-04-14 16:20 45.39383 23.14371 23001 ft 355 kts 289°
2026-04-14 16:20 45.40158 23.11048 22566 ft 352 kts 289°
2026-04-14 16:21 45.40918 23.07790 22140 ft 349 kts 289°
2026-04-14 16:21 45.41677 23.04531 21689 ft 347 kts 289°
2026-04-14 16:21 45.42429 23.01291 21260 ft 345 kts 289°
2026-04-14 16:21 45.43177 22.98064 20807 ft 344 kts 289°
2026-04-14 16:22 45.43923 22.94844 20361 ft 342 kts 289°
2026-04-14 16:22 45.44658 22.91670 19943 ft 340 kts 289°
2026-04-14 16:22 45.45393 22.88488 19487 ft 338 kts 289°
2026-04-14 16:22 45.46126 22.85308 19077 ft 336 kts 289°
2026-04-14 16:23 45.46848 22.82171 18641 ft 334 kts 289°
2026-04-14 16:23 45.47566 22.79047 18206 ft 332 kts 289°
2026-04-14 16:23 45.48277 22.75948 17778 ft 331 kts 289°
2026-04-14 16:23 45.48990 22.72835 17340 ft 330 kts 289°
2026-04-14 16:24 45.49694 22.69762 16884 ft 329 kts 289°
2026-04-14 16:24 45.50400 22.66676 16421 ft 329 kts 289°
2026-04-14 16:24 45.51107 22.63580 15969 ft 328 kts 289°
2026-04-14 16:24 45.51811 22.60490 15493 ft 328 kts 289°
2026-04-14 16:25 45.52502 22.57455 15054 ft 327 kts 289°
2026-04-14 16:25 45.53199 22.54385 14601 ft 326 kts 289°
2026-04-14 16:25 45.53857 22.51484 14166 ft 326 kts 289°
2026-04-14 16:25 45.54554 22.48408 13713 ft 325 kts 289°
2026-04-14 16:26 45.55246 22.45351 13287 ft 323 kts 289°
2026-04-14 16:26 45.55937 22.42300 12837 ft 322 kts 289°
2026-04-14 16:26 45.56619 22.39279 12390 ft 321 kts 289°
2026-04-14 16:26 45.57294 22.36286 11941 ft 321 kts 289°
2026-04-14 16:27 45.57977 22.33256 11496 ft 320 kts 288°
2026-04-14 16:27 45.58662 22.30211 11059 ft 319 kts 288°
2026-04-14 16:27 45.59335 22.27213 10624 ft 317 kts 287°
2026-04-14 16:27 45.60004 22.24226 10230 ft 314 kts 287°
2026-04-14 16:28 45.60652 22.21325 10121 ft 300 kts 287°
2026-04-14 16:28 45.61277 22.18526 9837 ft 295 kts 287°
2026-04-14 16:28 45.61889 22.15781 9474 ft 293 kts 287°
2026-04-14 16:28 45.62505 22.13019 9105 ft 291 kts 287°
2026-04-14 16:29 45.63116 22.10274 8748 ft 288 kts 287°
2026-04-14 16:29 45.63714 22.07579 8395 ft 286 kts 288°
2026-04-14 16:29 45.64314 22.04878 8050 ft 283 kts 287°
2026-04-14 16:29 45.64905 22.02212 7700 ft 281 kts 287°
2026-04-14 16:30 45.65490 21.99572 7346 ft 280 kts 288°
2026-04-14 16:30 45.66074 21.96927 7121 ft 280 kts 288°
2026-04-14 16:30 45.66660 21.94277 6735 ft 282 kts 288°
2026-04-14 16:30 45.67253 21.91590 6338 ft 281 kts 288°
2026-04-14 16:31 45.67837 21.88941 5975 ft 279 kts 288°
2026-04-14 16:31 45.68408 21.86339 5629 ft 276 kts 288°
2026-04-14 16:31 45.68986 21.83708 5287 ft 274 kts 288°
2026-04-14 16:31 45.69550 21.81143 4948 ft 272 kts 288°
2026-04-14 16:32 45.70117 21.78551 4606 ft 270 kts 288°
2026-04-14 16:32 45.70681 21.75970 4271 ft 268 kts 288°
2026-04-14 16:32 45.71242 21.73407 3933 ft 266 kts 289°
2026-04-14 16:32 45.71795 21.70874 3601 ft 265 kts 289°
2026-04-14 16:33 45.72342 21.68366 3278 ft 263 kts 289°
2026-04-14 16:33 45.72877 21.65914 3200 ft 250 kts 290°
2026-04-14 16:33 45.73435 21.63679 3166 ft 227 kts 293°
2026-04-14 16:33 45.73982 21.61673 3157 ft 204 kts 293°
2026-04-14 16:34 45.74457 21.59890 3199 ft 181 kts 293°
2026-04-14 16:34 45.74871 21.58281 3157 ft 170 kts 292°
2026-04-14 16:34 45.75277 21.56677 3180 ft 173 kts 292°
2026-04-14 16:34 45.75685 21.55037 3088 ft 174 kts 291°
2026-04-14 16:35 45.76071 21.53470 2864 ft 161 kts 291°
2026-04-14 16:35 45.76429 21.52021 2633 ft 148 kts 290°
2026-04-14 16:35 45.76760 21.50684 2425 ft 140 kts 290°
2026-04-14 16:35 45.77090 21.49357 2259 ft 141 kts 290°
2026-04-14 16:36 45.77417 21.48041 2088 ft 140 kts 290°
2026-04-14 16:36 45.77741 21.46740 1912 ft 139 kts 290°
2026-04-14 16:36 45.78069 21.45421 1734 ft 138 kts 290°
2026-04-14 16:36 45.78391 21.44135 1555 ft 136 kts 289°
2026-04-14 16:37 45.78706 21.42876 1370 ft 134 kts 289°
2026-04-14 16:37 45.79024 21.41606 1187 ft 133 kts 288°
2026-04-14 16:37 45.79335 21.40366 1012 ft 132 kts 288°
2026-04-14 16:37 45.79636 21.39122 840 ft 131 kts 283°
2026-04-14 16:38 45.79946 21.37888 696 ft 131 kts 287°
2026-04-14 16:38 45.80256 21.36657 500 ft 130 kts 286°
2026-04-14 16:38 45.80567 21.35440 366 ft 126 kts 289°
2026-04-14 16:38 45.80841 21.34352 352 ft 101 kts 289°
2026-04-14 16:39 45.81033 21.33591 355 ft 63 kts 289°
2026-04-14 16:39 45.81172 21.33035 353 ft 50 kts 289°
2026-04-14 16:39 45.81279 21.32613 348 ft 41 kts 289°
2026-04-14 16:39 45.81367 21.32263 345 ft 28 kts 289°
2026-04-14 16:40 45.81319 21.32131 344 ft 14 kts 198°
2026-04-14 16:40 45.81221 21.32081 344 ft 15 kts 200°
2026-04-14 16:40 45.81152 21.32050 344 ft 5 kts 172°
2026-04-14 16:40 45.81130 21.32088 344 ft 5 kts 115°
2026-04-14 16:41 45.81113 21.32141 344 ft 3 kts 128°
2026-04-14 16:41 45.81094 21.32152 345 ft 3 kts 184°
2026-04-14 16:41 45.81070 21.32146 345 ft 3 kts 194°
2026-04-14 16:41 45.81054 21.32138 345 ft 0 kts 200°